Data supplied by UK-AIR on 8/3/2024
All Data GMT hour ending 
Status: R =Ratified P=Provisional,P*=As supplied
,,Bath A4 Roadside,,,,,,,,,,,,,,,,,,,,,,,
Date,time,"Nitric oxide",status,unit,"Nitrogen dioxide",status,unit,"Nitrogen oxides as nitrogen dioxide",status,unit
 
01-01-2023,01:00,2.38054,R,ugm-3,9.20737,R,ugm-3,12.85748,R,ugm-3
01-01-2023,02:00,3.92089,R,ugm-3,12.80210,R,ugm-3,18.81405,R,ugm-3
01-01-2023,03:00,5.28620,R,ugm-3,17.44612,R,ugm-3,25.55151,R,ugm-3
01-01-2023,04:00,2.38054,R,ugm-3,7.19157,R,ugm-3,10.84169,R,ugm-3
01-01-2023,05:00,4.93612,R,ugm-3,6.26952,R,ugm-3,13.83814,R,ugm-3
01-01-2023,06:00,5.07616,R,ugm-3,11.88425,R,ugm-3,19.66758,R,ugm-3
01-01-2023,07:00,1.85542,R,ugm-3,8.75948,R,ugm-3,11.60442,R,ugm-3
01-01-2023,08:00,1.19027,R,ugm-3,9.83384,R,ugm-3,11.65890,R,ugm-3
01-01-2023,09:00,3.15072,R,ugm-3,9.06158,R,ugm-3,13.89261,R,ugm-3
01-01-2023,10:00,2.31053,R,ugm-3,7.84374,R,ugm-3,11.38650,R,ugm-3
01-01-2023,11:00,3.50080,R,ugm-3,9.23305,R,ugm-3,14.60087,R,ugm-3
01-01-2023,12:00,4.69107,R,ugm-3,14.65395,R,ugm-3,21.84682,R,ugm-3
01-01-2023,13:00,8.54194,R,ugm-3,19.97241,R,ugm-3,33.06987,R,ugm-3
01-01-2023,14:00,6.54649,R,ugm-3,18.07430,R,ugm-3,28.11212,R,ugm-3
01-01-2023,15:00,7.35167,R,ugm-3,19.50927,R,ugm-3,30.78168,R,ugm-3
01-01-2023,16:00,9.17209,R,ugm-3,24.78117,R,ugm-3,38.84484,R,ugm-3
01-01-2023,17:00,12.98796,R,ugm-3,26.61205,R,ugm-3,46.52664,R,ugm-3
01-01-2023,18:00,8.26188,R,ugm-3,28.95533,R,ugm-3,41.62336,R,ugm-3
01-01-2023,19:00,18.02910,R,ugm-3,43.34430,R,ugm-3,70.98854,R,ugm-3
01-01-2023,20:00,8.68198,R,ugm-3,26.67676,R,ugm-3,39.98894,R,ugm-3
01-01-2023,21:00,5.84633,R,ugm-3,22.63464,R,ugm-3,31.59889,R,ugm-3
01-01-2023,22:00,4.44601,R,ugm-3,17.97166,R,ugm-3,24.78878,R,ugm-3
01-01-2023,23:00,8.19186,R,ugm-3,16.36864,R,ugm-3,28.92933,R,ugm-3
01-01-2023,24:00,4.86611,R,ugm-3,18.52610,R,ugm-3,25.98736,R,ugm-3
02-01-2023,01:00,2.47718,R,ugm-3,13.05565,R,ugm-3,16.85394,R,ugm-3
02-01-2023,02:00,4.34675,R,ugm-3,14.54779,R,ugm-3,21.21272,R,ugm-3
02-01-2023,03:00,1.29702,R,ugm-3,11.46900,R,ugm-3,13.45773,R,ugm-3
02-01-2023,04:00,1.89294,R,ugm-3,9.41108,R,ugm-3,12.31355,R,ugm-3
02-01-2023,05:00,3.08479,R,ugm-3,10.47129,R,ugm-3,15.20124,R,ugm-3
02-01-2023,06:00,21.24299,R,ugm-3,23.16573,R,ugm-3,55.73787,R,ugm-3
02-01-2023,07:00,5.32828,R,ugm-3,16.83858,R,ugm-3,25.00849,R,ugm-3
02-01-2023,08:00,10.06063,R,ugm-3,20.86075,R,ugm-3,36.28682,R,ugm-3
02-01-2023,09:00,9.78019,R,ugm-3,25.86746,R,ugm-3,40.86354,R,ugm-3
02-01-2023,10:00,20.26147,R,ugm-3,37.85601,R,ugm-3,68.92317,R,ugm-3
02-01-2023,11:00,30.53242,R,ugm-3,45.20896,R,ugm-3,92.02469,R,ugm-3
02-01-2023,12:00,28.35905,R,ugm-3,34.15746,R,ugm-3,77.64072,R,ugm-3
02-01-2023,13:00,34.52863,R,ugm-3,45.51073,R,ugm-3,98.45388,R,ugm-3
02-01-2023,14:00,19.38511,R,ugm-3,33.09746,R,ugm-3,62.82088,R,ugm-3
02-01-2023,15:00,23.48648,R,ugm-3,34.76355,R,ugm-3,70.77565,R,ugm-3
02-01-2023,16:00,24.04735,R,ugm-3,52.75527,R,ugm-3,89.62736,R,ugm-3
02-01-2023,17:00,56.08711,R,ugm-3,69.06447,R,ugm-3,155.06351,R,ugm-3
02-01-2023,18:00,65.90236,R,ugm-3,53.79670,R,ugm-3,154.84557,R,ugm-3
02-01-2023,19:00,58.99663,R,ugm-3,48.03991,R,ugm-3,138.50015,R,ugm-3
02-01-2023,20:00,50.82894,R,ugm-3,45.90713,R,ugm-3,123.84376,R,ugm-3
02-01-2023,21:00,33.82754,R,ugm-3,35.41635,R,ugm-3,87.28452,R,ugm-3
02-01-2023,22:00,17.42206,R,ugm-3,27.55333,R,ugm-3,54.26678,R,ugm-3
02-01-2023,23:00,12.93509,R,ugm-3,22.11970,R,ugm-3,41.95323,R,ugm-3
02-01-2023,24:00,4.31170,R,ugm-3,18.94216,R,ugm-3,25.55333,R,ugm-3
03-01-2023,01:00,4.53972,R,ugm-3,18.83046,R,ugm-3,25.79127,R,ugm-3
03-01-2023,02:00,2.71447,R,ugm-3,13.78278,R,ugm-3,17.94491,R,ugm-3
03-01-2023,03:00,3.89620,R,ugm-3,12.00714,R,ugm-3,17.98124,R,ugm-3
03-01-2023,04:00,3.79090,R,ugm-3,15.43792,R,ugm-3,21.25055,R,ugm-3
03-01-2023,05:00,1.93055,R,ugm-3,7.33821,R,ugm-3,10.29834,R,ugm-3
03-01-2023,06:00,3.15908,R,ugm-3,9.37766,R,ugm-3,14.22152,R,ugm-3
03-01-2023,07:00,3.19418,R,ugm-3,10.90401,R,ugm-3,15.80169,R,ugm-3
03-01-2023,08:00,8.03811,R,ugm-3,20.36822,R,ugm-3,32.69316,R,ugm-3
03-01-2023,09:00,8.59973,R,ugm-3,21.79561,R,ugm-3,34.98168,R,ugm-3
03-01-2023,10:00,12.91714,R,ugm-3,32.66651,R,ugm-3,52.47252,R,ugm-3
03-01-2023,11:00,15.51461,R,ugm-3,33.75122,R,ugm-3,57.53995,R,ugm-3
03-01-2023,12:00,13.47875,R,ugm-3,24.01351,R,ugm-3,44.68065,R,ugm-3
03-01-2023,13:00,10.67068,R,ugm-3,19.32855,R,ugm-3,35.69003,R,ugm-3
03-01-2023,14:00,9.30175,R,ugm-3,22.46284,R,ugm-3,36.72531,R,ugm-3
03-01-2023,15:00,7.79241,R,ugm-3,12.57168,R,ugm-3,24.51987,R,ugm-3
03-01-2023,16:00,7.75730,R,ugm-3,15.67686,R,ugm-3,27.57123,R,ugm-3
03-01-2023,17:00,11.02169,R,ugm-3,20.31602,R,ugm-3,37.21571,R,ugm-3
03-01-2023,18:00,10.31967,R,ugm-3,19.26738,R,ugm-3,35.09065,R,ugm-3
03-01-2023,19:00,6.52877,R,ugm-3,18.86831,R,ugm-3,28.87896,R,ugm-3
03-01-2023,20:00,4.07171,R,ugm-3,12.50088,R,ugm-3,18.74408,R,ugm-3
03-01-2023,21:00,2.42196,R,ugm-3,9.79955,R,ugm-3,13.51317,R,ugm-3
03-01-2023,22:00,1.93055,R,ugm-3,9.02735,R,ugm-3,11.98749,R,ugm-3
03-01-2023,23:00,1.86035,R,ugm-3,5.32079,R,ugm-3,8.17329,R,ugm-3
03-01-2023,24:00,0.84242,R,ugm-3,2.79495,R,ugm-3,4.08665,R,ugm-3
04-01-2023,01:00,1.17158,R,ugm-3,2.85363,R,ugm-3,4.65002,R,ugm-3
04-01-2023,02:00,2.43689,R,ugm-3,3.45650,R,ugm-3,7.19301,R,ugm-3
04-01-2023,03:00,0.49206,R,ugm-3,0.98927,R,ugm-3,1.74376,R,ugm-3
04-01-2023,04:00,0.56236,R,ugm-3,1.53540,R,ugm-3,2.39767,R,ugm-3
04-01-2023,05:00,0.49206,R,ugm-3,2.18811,R,ugm-3,2.94259,R,ugm-3
04-01-2023,06:00,1.12472,R,ugm-3,6.66730,R,ugm-3,8.39184,R,ugm-3
04-01-2023,07:00,1.96825,R,ugm-3,6.51823,R,ugm-3,9.53618,R,ugm-3
04-01-2023,08:00,7.97846,R,ugm-3,21.00694,R,ugm-3,33.24041,R,ugm-3
04-01-2023,09:00,8.50567,R,ugm-3,20.25305,R,ugm-3,33.29490,R,ugm-3
04-01-2023,10:00,8.18935,R,ugm-3,18.12244,R,ugm-3,30.67926,R,ugm-3
04-01-2023,11:00,8.47052,R,ugm-3,15.02117,R,ugm-3,28.00913,R,ugm-3
04-01-2023,12:00,7.20522,R,ugm-3,15.16303,R,ugm-3,26.21088,R,ugm-3
04-01-2023,13:00,5.65873,R,ugm-3,12.90242,R,ugm-3,21.57902,R,ugm-3
04-01-2023,14:00,7.20522,R,ugm-3,16.08940,R,ugm-3,27.13725,R,ugm-3
04-01-2023,15:00,8.40023,R,ugm-3,13.93012,R,ugm-3,26.81030,R,ugm-3
04-01-2023,16:00,9.45465,R,ugm-3,11.98641,R,ugm-3,26.48334,R,ugm-3
04-01-2023,17:00,10.96599,R,ugm-3,17.84293,R,ugm-3,34.65721,R,ugm-3
04-01-2023,18:00,11.63379,R,ugm-3,21.34186,R,ugm-3,39.18009,R,ugm-3
04-01-2023,19:00,7.38096,R,ugm-3,16.41936,R,ugm-3,27.73667,R,ugm-3
04-01-2023,20:00,9.91157,R,ugm-3,13.62899,R,ugm-3,28.82652,R,ugm-3
04-01-2023,21:00,4.04195,R,ugm-3,7.53453,R,ugm-3,13.73210,R,ugm-3
04-01-2023,22:00,2.39002,R,ugm-3,5.16313,R,ugm-3,8.82778,R,ugm-3
04-01-2023,23:00,1.23016,R,ugm-3,3.18158,R,ugm-3,5.06780,R,ugm-3
04-01-2023,24:00,1.40590,R,ugm-3,2.20372,R,ugm-3,4.35940,R,ugm-3
05-01-2023,01:00,1.45468,R,ugm-3,2.56520,R,ugm-3,4.79568,R,ugm-3
05-01-2023,02:00,0.75080,R,ugm-3,1.60993,R,ugm-3,2.76115,R,ugm-3
05-01-2023,03:00,0.14078,R,ugm-3,1.25555,R,ugm-3,1.47140,R,ugm-3
05-01-2023,04:00,0.59830,R,ugm-3,4.15079,R,ugm-3,5.06816,R,ugm-3
05-01-2023,05:00,2.56915,R,ugm-3,6.30600,R,ugm-3,10.24531,R,ugm-3
05-01-2023,06:00,8.37614,R,ugm-3,19.25511,R,ugm-3,32.09835,R,ugm-3
05-01-2023,07:00,20.62362,R,ugm-3,41.72964,R,ugm-3,73.35208,R,ugm-3
05-01-2023,08:00,42.86615,R,ugm-3,49.75057,R,ugm-3,115.47775,R,ugm-3
05-01-2023,09:00,31.21697,R,ugm-3,47.28526,R,ugm-3,95.15062,R,ugm-3
05-01-2023,10:00,12.17708,R,ugm-3,27.43264,R,ugm-3,46.10391,R,ugm-3
05-01-2023,11:00,9.25599,R,ugm-3,24.06411,R,ugm-3,38.25643,R,ugm-3
05-01-2023,12:00,13.26809,R,ugm-3,27.23118,R,ugm-3,47.57531,R,ugm-3
05-01-2023,13:00,12.21228,R,ugm-3,23.40044,R,ugm-3,42.12567,R,ugm-3
05-01-2023,14:00,10.73413,R,ugm-3,25.28542,R,ugm-3,41.74420,R,ugm-3
05-01-2023,15:00,12.70499,R,ugm-3,25.47877,R,ugm-3,44.95948,R,ugm-3
05-01-2023,16:00,15.27415,R,ugm-3,34.89106,R,ugm-3,58.31109,R,ugm-3
05-01-2023,17:00,11.50840,R,ugm-3,24.91568,R,ugm-3,42.56164,R,ugm-3
05-01-2023,18:00,12.45864,R,ugm-3,27.05543,R,ugm-3,46.15840,R,ugm-3
05-01-2023,19:00,6.26451,R,ugm-3,18.56916,R,ugm-3,28.17461,R,ugm-3
05-01-2023,20:00,5.38466,R,ugm-3,12.88821,R,ugm-3,21.14458,R,ugm-3
05-01-2023,21:00,4.04730,R,ugm-3,11.99601,R,ugm-3,18.20178,R,ugm-3
05-01-2023,22:00,3.27303,R,ugm-3,9.04148,R,ugm-3,14.06006,R,ugm-3
05-01-2023,23:00,2.56915,R,ugm-3,7.88639,R,ugm-3,11.82571,R,ugm-3
05-01-2023,24:00,1.44295,R,ugm-3,5.03552,R,ugm-3,7.24801,R,ugm-3
06-01-2023,01:00,3.38307,R,ugm-3,7.31141,R,ugm-3,12.49872,R,ugm-3
06-01-2023,02:00,0.89276,R,ugm-3,6.18849,R,ugm-3,7.55736,R,ugm-3
06-01-2023,03:00,1.19817,R,ugm-3,7.37337,R,ugm-3,9.21054,R,ugm-3
06-01-2023,04:00,1.83250,R,ugm-3,9.83426,R,ugm-3,12.64405,R,ugm-3
06-01-2023,05:00,22.51859,R,ugm-3,14.90368,R,ugm-3,49.43170,R,ugm-3
06-01-2023,06:00,9.40918,R,ugm-3,22.25144,R,ugm-3,36.67865,R,ugm-3
06-01-2023,07:00,5.32130,R,ugm-3,18.70940,R,ugm-3,26.86861,R,ugm-3
06-01-2023,08:00,37.77767,R,ugm-3,54.01850,R,ugm-3,111.94345,R,ugm-3
06-01-2023,09:00,35.90993,R,ugm-3,51.37781,R,ugm-3,106.43893,R,ugm-3
06-01-2023,10:00,23.99869,R,ugm-3,39.33933,R,ugm-3,76.13681,R,ugm-3
06-01-2023,11:00,17.83162,R,ugm-3,36.58732,R,ugm-3,63.92876,R,ugm-3
06-01-2023,12:00,14.09614,R,ugm-3,26.01940,R,ugm-3,47.63319,R,ugm-3
06-01-2023,13:00,13.32086,R,ugm-3,25.57316,R,ugm-3,45.99818,R,ugm-3
06-01-2023,14:00,13.53230,R,ugm-3,27.26546,R,ugm-3,48.01469,R,ugm-3
06-01-2023,15:00,20.93278,R,ugm-3,36.19230,R,ugm-3,68.28878,R,ugm-3
06-01-2023,16:00,32.24493,R,ugm-3,52.74637,R,ugm-3,102.18791,R,ugm-3
06-01-2023,17:00,15.11812,R,ugm-3,35.73395,R,ugm-3,58.91474,R,ugm-3
06-01-2023,18:00,12.15793,R,ugm-3,28.66430,R,ugm-3,47.30619,R,ugm-3
06-01-2023,19:00,7.04807,R,ugm-3,18.67773,R,ugm-3,29.48462,R,ugm-3
06-01-2023,20:00,3.87644,R,ugm-3,11.06028,R,ugm-3,17.00407,R,ugm-3
06-01-2023,21:00,3.27735,R,ugm-3,9.74435,R,ugm-3,14.76956,R,ugm-3
06-01-2023,22:00,3.41832,R,ugm-3,8.05671,R,ugm-3,13.29805,R,ugm-3
06-01-2023,23:00,2.29062,R,ugm-3,7.22430,R,ugm-3,10.73654,R,ugm-3
06-01-2023,24:00,2.11442,R,ugm-3,4.27896,R,ugm-3,7.52103,R,ugm-3
07-01-2023,01:00,1.92901,R,ugm-3,3.29202,R,ugm-3,6.24980,R,ugm-3
07-01-2023,02:00,0.61164,R,ugm-3,2.18707,R,ugm-3,3.12490,R,ugm-3
07-01-2023,03:00,0.63516,R,ugm-3,2.45986,R,ugm-3,3.43376,R,ugm-3
07-01-2023,04:00,1.02332,R,ugm-3,4.37188,R,ugm-3,5.94095,R,ugm-3
07-01-2023,05:00,1.41147,R,ugm-3,2.46862,R,ugm-3,4.63285,R,ugm-3
07-01-2023,06:00,0.52930,R,ugm-3,2.02263,R,ugm-3,2.83421,R,ugm-3
07-01-2023,07:00,1.23504,R,ugm-3,3.50220,R,ugm-3,5.39591,R,ugm-3
07-01-2023,08:00,2.08192,R,ugm-3,5.52842,R,ugm-3,8.72066,R,ugm-3
07-01-2023,09:00,3.77569,R,ugm-3,9.03580,R,ugm-3,14.82511,R,ugm-3
07-01-2023,10:00,4.86958,R,ugm-3,11.17381,R,ugm-3,18.64040,R,ugm-3
07-01-2023,11:00,10.40962,R,ugm-3,21.70114,R,ugm-3,37.66233,R,ugm-3
07-01-2023,12:00,20.50165,R,ugm-3,36.58568,R,ugm-3,68.02111,R,ugm-3
07-01-2023,13:00,15.52621,R,ugm-3,27.86336,R,ugm-3,51.66988,R,ugm-3
07-01-2023,14:00,12.73855,R,ugm-3,20.14681,R,ugm-3,39.67898,R,ugm-3
07-01-2023,15:00,9.56273,R,ugm-3,18.74836,R,ugm-3,33.41101,R,ugm-3
07-01-2023,16:00,6.77507,R,ugm-3,19.47994,R,ugm-3,29.86824,R,ugm-3
07-01-2023,17:00,7.26909,R,ugm-3,17.52337,R,ugm-3,28.66915,R,ugm-3
07-01-2023,18:00,10.90363,R,ugm-3,23.77787,R,ugm-3,40.49654,R,ugm-3
07-01-2023,19:00,11.08007,R,ugm-3,27.59515,R,ugm-3,44.58435,R,ugm-3
07-01-2023,20:00,8.96286,R,ugm-3,23.59245,R,ugm-3,37.33531,R,ugm-3
07-01-2023,21:00,6.06934,R,ugm-3,14.67562,R,ugm-3,23.98180,R,ugm-3
07-01-2023,22:00,3.74041,R,ugm-3,9.85296,R,ugm-3,15.58817,R,ugm-3
07-01-2023,23:00,3.84627,R,ugm-3,8.92759,R,ugm-3,14.82511,R,ugm-3
07-01-2023,24:00,3.35225,R,ugm-3,6.46933,R,ugm-3,11.60937,R,ugm-3
08-01-2023,01:00,1.17778,R,ugm-3,3.28151,R,ugm-3,5.08741,R,ugm-3
08-01-2023,02:00,1.13067,R,ugm-3,2.40894,R,ugm-3,4.14261,R,ugm-3
08-01-2023,03:00,0.88333,R,ugm-3,2.35212,R,ugm-3,3.70654,R,ugm-3
08-01-2023,04:00,0.91867,R,ugm-3,1.97089,R,ugm-3,3.37950,R,ugm-3
08-01-2023,05:00,0.84800,R,ugm-3,2.35179,R,ugm-3,3.65203,R,ugm-3
08-01-2023,06:00,1.09533,R,ugm-3,3.88033,R,ugm-3,5.55981,R,ugm-3
08-01-2023,07:00,1.66067,R,ugm-3,8.19175,R,ugm-3,10.73807,R,ugm-3
08-01-2023,08:00,2.19067,R,ugm-3,11.52170,R,ugm-3,14.88068,R,ugm-3
08-01-2023,09:00,3.42733,R,ugm-3,13.05951,R,ugm-3,18.31468,R,ugm-3
08-01-2023,10:00,7.27866,R,ugm-3,18.60089,R,ugm-3,29.76135,R,ugm-3
08-01-2023,11:00,6.81933,R,ugm-3,13.96341,R,ugm-3,24.41957,R,ugm-3
08-01-2023,12:00,16.25333,R,ugm-3,28.82344,R,ugm-3,53.74486,R,ugm-3
08-01-2023,13:00,18.97399,R,ugm-3,30.70219,R,ugm-3,59.79524,R,ugm-3
08-01-2023,14:00,13.17933,R,ugm-3,23.67089,R,ugm-3,43.87892,R,ugm-3
08-01-2023,15:00,12.86133,R,ugm-3,32.33468,R,ugm-3,52.05511,R,ugm-3
08-01-2023,16:00,15.75866,R,ugm-3,33.17944,R,ugm-3,57.34238,R,ugm-3
08-01-2023,17:00,20.42266,R,ugm-3,35.73050,R,ugm-3,67.04480,R,ugm-3
08-01-2023,18:00,35.86332,R,ugm-3,56.58816,R,ugm-3,111.57782,R,ugm-3
08-01-2023,19:00,17.20733,R,ugm-3,34.06514,R,ugm-3,60.44934,R,ugm-3
08-01-2023,20:00,18.40866,R,ugm-3,39.09113,R,ugm-3,67.31734,R,ugm-3
08-01-2023,21:00,4.91133,R,ugm-3,16.50741,R,ugm-3,24.03802,R,ugm-3
08-01-2023,22:00,4.66400,R,ugm-3,16.34157,R,ugm-3,23.49294,R,ugm-3
08-01-2023,23:00,3.60400,R,ugm-3,10.49929,R,ugm-3,16.02534,R,ugm-3
08-01-2023,24:00,1.87267,R,ugm-3,9.06586,R,ugm-3,11.93725,R,ugm-3
09-01-2023,01:00,1.79258,R,ugm-3,13.09620,R,ugm-3,15.84478,R,ugm-3
09-01-2023,02:00,1.41519,R,ugm-3,8.51439,R,ugm-3,10.68432,R,ugm-3
09-01-2023,03:00,0.74298,R,ugm-3,4.53002,R,ugm-3,5.66923,R,ugm-3
09-01-2023,04:00,0.77836,R,ugm-3,5.72954,R,ugm-3,6.92301,R,ugm-3
09-01-2023,05:00,0.99063,R,ugm-3,5.34954,R,ugm-3,6.86849,R,ugm-3
09-01-2023,06:00,1.45057,R,ugm-3,8.46014,R,ugm-3,10.68432,R,ugm-3
09-01-2023,07:00,4.10406,R,ugm-3,12.07769,R,ugm-3,18.37049,R,ugm-3
09-01-2023,08:00,14.54110,R,ugm-3,30.03533,R,ugm-3,52.33137,R,ugm-3
09-01-2023,09:00,17.51300,R,ugm-3,32.72855,R,ugm-3,59.58145,R,ugm-3
09-01-2023,10:00,15.46097,R,ugm-3,26.93501,R,ugm-3,50.64150,R,ugm-3
09-01-2023,11:00,16.45161,R,ugm-3,29.39542,R,ugm-3,54.62087,R,ugm-3
09-01-2023,12:00,12.59521,R,ugm-3,20.53578,R,ugm-3,39.84816,R,ugm-3
09-01-2023,13:00,10.08324,R,ugm-3,18.60915,R,ugm-3,34.06990,R,ugm-3
09-01-2023,14:00,13.19667,R,ugm-3,22.23012,R,ugm-3,42.46473,R,ugm-3
09-01-2023,15:00,15.49635,R,ugm-3,21.64763,R,ugm-3,45.40837,R,ugm-3
09-01-2023,16:00,15.74401,R,ugm-3,28.68150,R,ugm-3,52.82198,R,ugm-3
09-01-2023,17:00,21.12174,R,ugm-3,34.17275,R,ugm-3,66.55896,R,ugm-3
09-01-2023,18:00,20.73256,R,ugm-3,33.02510,R,ugm-3,64.81459,R,ugm-3
09-01-2023,19:00,17.22996,R,ugm-3,32.34486,R,ugm-3,58.76377,R,ugm-3
09-01-2023,20:00,11.39230,R,ugm-3,23.85204,R,ugm-3,41.31998,R,ugm-3
09-01-2023,21:00,8.91571,R,ugm-3,21.05348,R,ugm-3,34.72405,R,ugm-3
09-01-2023,22:00,7.11134,R,ugm-3,18.58701,R,ugm-3,29.49091,R,ugm-3
09-01-2023,23:00,3.18418,R,ugm-3,20.02957,R,ugm-3,24.91191,R,ugm-3
09-01-2023,24:00,12.24141,R,ugm-3,39.17619,R,ugm-3,57.94609,R,ugm-3
10-01-2023,01:00,4.67627,R,ugm-3,16.30793,R,ugm-3,23.47810,R,ugm-3
10-01-2023,02:00,3.63710,R,ugm-3,9.97835,R,ugm-3,15.55515,R,ugm-3
10-01-2023,03:00,1.02736,R,ugm-3,3.65824,R,ugm-3,5.23351,R,ugm-3
10-01-2023,04:00,1.80674,R,ugm-3,5.29803,R,ugm-3,8.06833,R,ugm-3
10-01-2023,05:00,1.20449,R,ugm-3,5.24018,R,ugm-3,7.08704,R,ugm-3
10-01-2023,06:00,2.97581,R,ugm-3,9.55673,R,ugm-3,14.11957,R,ugm-3
10-01-2023,07:00,2.47984,R,ugm-3,11.24397,R,ugm-3,15.04634,R,ugm-3
10-01-2023,08:00,5.42022,R,ugm-3,12.62315,R,ugm-3,20.93404,R,ugm-3
10-01-2023,09:00,8.32518,R,ugm-3,22.07046,R,ugm-3,34.83555,R,ugm-3
10-01-2023,10:00,9.38796,R,ugm-3,21.42215,R,ugm-3,35.81683,R,ugm-3
10-01-2023,11:00,23.70018,R,ugm-3,41.18159,R,ugm-3,77.52136,R,ugm-3
10-01-2023,12:00,10.66331,R,ugm-3,21.75631,R,ugm-3,38.10649,R,ugm-3
10-01-2023,13:00,9.28168,R,ugm-3,20.05867,R,ugm-3,34.29039,R,ugm-3
10-01-2023,14:00,8.75029,R,ugm-3,16.13060,R,ugm-3,29.54752,R,ugm-3
10-01-2023,15:00,8.21890,R,ugm-3,20.27085,R,ugm-3,32.87298,R,ugm-3
10-01-2023,16:00,12.71803,R,ugm-3,20.56834,R,ugm-3,40.06906,R,ugm-3
10-01-2023,17:00,11.54897,R,ugm-3,19.14446,R,ugm-3,36.85263,R,ugm-3
10-01-2023,18:00,9.03370,R,ugm-3,18.14925,R,ugm-3,32.00073,R,ugm-3
10-01-2023,19:00,6.02247,R,ugm-3,11.48165,R,ugm-3,20.71597,R,ugm-3
10-01-2023,20:00,4.35743,R,ugm-3,12.34469,R,ugm-3,19.02599,R,ugm-3
10-01-2023,21:00,3.36550,R,ugm-3,7.43278,R,ugm-3,12.59313,R,ugm-3
10-01-2023,22:00,2.05473,R,ugm-3,5.13586,R,ugm-3,8.28639,R,ugm-3
10-01-2023,23:00,1.98387,R,ugm-3,5.62611,R,ugm-3,8.66800,R,ugm-3
10-01-2023,24:00,1.41705,R,ugm-3,3.22427,R,ugm-3,5.39706,R,ugm-3
11-01-2023,01:00,0.80405,R,ugm-3,2.76525,R,ugm-3,3.99810,R,ugm-3
11-01-2023,02:00,1.37161,R,ugm-3,1.96769,R,ugm-3,4.07080,R,ugm-3
11-01-2023,03:00,0.42567,R,ugm-3,2.34589,R,ugm-3,2.99858,R,ugm-3
11-01-2023,04:00,0.67398,R,ugm-3,4.52757,R,ugm-3,5.56100,R,ugm-3
11-01-2023,05:00,0.95776,R,ugm-3,3.11109,R,ugm-3,4.57965,R,ugm-3
11-01-2023,06:00,1.56080,R,ugm-3,5.83926,R,ugm-3,8.23246,R,ugm-3
11-01-2023,07:00,3.90200,R,ugm-3,13.26243,R,ugm-3,19.24542,R,ugm-3
11-01-2023,08:00,17.45260,R,ugm-3,36.75505,R,ugm-3,63.51533,R,ugm-3
11-01-2023,09:00,25.25660,R,ugm-3,34.11193,R,ugm-3,72.83818,R,ugm-3
11-01-2023,10:00,13.23134,R,ugm-3,27.90755,R,ugm-3,48.19532,R,ugm-3
11-01-2023,11:00,,,,,,,,,
11-01-2023,12:00,9.50670,R,ugm-3,20.37033,R,ugm-3,34.94706,R,ugm-3
11-01-2023,13:00,8.47799,R,ugm-3,21.18439,R,ugm-3,34.18379,R,ugm-3
11-01-2023,14:00,20.57420,R,ugm-3,31.04183,R,ugm-3,62.58850,R,ugm-3
11-01-2023,15:00,9.29386,R,ugm-3,15.95347,R,ugm-3,30.20386,R,ugm-3
11-01-2023,16:00,7.62664,R,ugm-3,23.19852,R,ugm-3,34.89254,R,ugm-3
11-01-2023,17:00,15.89180,R,ugm-3,33.80533,R,ugm-3,58.17241,R,ugm-3
11-01-2023,18:00,8.54893,R,ugm-3,23.52899,R,ugm-3,36.63717,R,ugm-3
11-01-2023,19:00,11.10297,R,ugm-3,16.88687,R,ugm-3,33.91119,R,ugm-3
11-01-2023,20:00,5.00166,R,ugm-3,17.24635,R,ugm-3,24.91546,R,ugm-3
11-01-2023,21:00,3.47633,R,ugm-3,13.47896,R,ugm-3,18.80926,R,ugm-3
11-01-2023,22:00,4.04389,R,ugm-3,14.89853,R,ugm-3,21.09908,R,ugm-3
11-01-2023,23:00,3.19255,R,ugm-3,9.49800,R,ugm-3,14.39317,R,ugm-3
11-01-2023,24:00,1.09966,R,ugm-3,3.65681,R,ugm-3,5.34292,R,ugm-3
12-01-2023,01:00,1.98908,R,ugm-3,2.40247,R,ugm-3,5.45235,R,ugm-3
12-01-2023,02:00,0.33151,R,ugm-3,2.39961,R,ugm-3,2.90792,R,ugm-3
12-01-2023,03:00,0.39071,R,ugm-3,2.89042,R,ugm-3,3.48950,R,ugm-3
12-01-2023,04:00,0.53279,R,ugm-3,3.05424,R,ugm-3,3.87117,R,ugm-3
12-01-2023,05:00,0.78142,R,ugm-3,3.27276,R,ugm-3,4.47092,R,ugm-3
12-01-2023,06:00,1.91804,R,ugm-3,4.69233,R,ugm-3,7.63329,R,ugm-3
12-01-2023,07:00,3.23225,R,ugm-3,12.43694,R,ugm-3,17.39299,R,ugm-3
12-01-2023,08:00,9.30604,R,ugm-3,24.00642,R,ugm-3,38.27548,R,ugm-3
12-01-2023,09:00,14.74048,R,ugm-3,24.72461,R,ugm-3,47.32637,R,ugm-3
12-01-2023,10:00,10.69129,R,ugm-3,22.48215,R,ugm-3,38.87524,R,ugm-3
12-01-2023,11:00,8.70221,R,ugm-3,19.69802,R,ugm-3,33.04122,R,ugm-3
12-01-2023,12:00,9.69675,R,ugm-3,20.02688,R,ugm-3,34.89502,R,ugm-3
12-01-2023,13:00,10.12298,R,ugm-3,19.91857,R,ugm-3,35.44026,R,ugm-3
12-01-2023,14:00,9.05741,R,ugm-3,21.71600,R,ugm-3,35.60383,R,ugm-3
12-01-2023,15:00,9.98091,R,ugm-3,16.97405,R,ugm-3,32.27790,R,ugm-3
12-01-2023,16:00,9.76779,R,ugm-3,15.17441,R,ugm-3,30.15148,R,ugm-3
12-01-2023,17:00,9.09292,R,ugm-3,19.09894,R,ugm-3,33.04122,R,ugm-3
12-01-2023,18:00,9.98091,R,ugm-3,15.61097,R,ugm-3,30.91481,R,ugm-3
12-01-2023,19:00,11.11752,R,ugm-3,24.60930,R,ugm-3,41.65593,R,ugm-3
12-01-2023,20:00,7.10385,R,ugm-3,22.53047,R,ugm-3,33.42289,R,ugm-3
12-01-2023,21:00,4.40439,R,ugm-3,13.31134,R,ugm-3,20.06464,R,ugm-3
12-01-2023,22:00,4.19127,R,ugm-3,13.31097,R,ugm-3,19.73750,R,ugm-3
12-01-2023,23:00,2.34427,R,ugm-3,10.03637,R,ugm-3,13.63087,R,ugm-3
12-01-2023,24:00,2.23771,R,ugm-3,7.09192,R,ugm-3,10.52303,R,ugm-3
13-01-2023,01:00,1.28037,R,ugm-3,4.87090,R,ugm-3,6.83410,R,ugm-3
13-01-2023,02:00,0.80616,R,ugm-3,2.39907,R,ugm-3,3.63516,R,ugm-3
13-01-2023,03:00,0.49792,R,ugm-3,1.63574,R,ugm-3,2.39920,R,ugm-3
13-01-2023,04:00,1.03141,R,ugm-3,2.28998,R,ugm-3,3.87144,R,ugm-3
13-01-2023,05:00,15.75561,R,ugm-3,13.57466,R,ugm-3,37.73293,R,ugm-3
13-01-2023,06:00,6.15287,R,ugm-3,11.88593,R,ugm-3,21.32019,R,ugm-3
13-01-2023,07:00,2.52517,R,ugm-3,7.63340,R,ugm-3,11.50527,R,ugm-3
13-01-2023,08:00,8.60690,R,ugm-3,16.90203,R,ugm-3,30.09910,R,ugm-3
13-01-2023,09:00,18.63643,R,ugm-3,28.67825,R,ugm-3,57.25372,R,ugm-3
13-01-2023,10:00,11.87895,R,ugm-3,18.91899,R,ugm-3,37.13312,R,ugm-3
13-01-2023,11:00,11.70112,R,ugm-3,21.91802,R,ugm-3,39.85949,R,ugm-3
13-01-2023,12:00,15.18656,R,ugm-3,17.99147,R,ugm-3,41.27720,R,ugm-3
13-01-2023,13:00,16.78702,R,ugm-3,21.15378,R,ugm-3,46.89352,R,ugm-3
13-01-2023,14:00,16.39580,R,ugm-3,21.31743,R,ugm-3,46.45730,R,ugm-3
13-01-2023,15:00,17.60503,R,ugm-3,27.96957,R,ugm-3,54.96357,R,ugm-3
13-01-2023,16:00,17.71173,R,ugm-3,28.02407,R,ugm-3,55.18168,R,ugm-3
13-01-2023,17:00,23.65120,R,ugm-3,37.18367,R,ugm-3,73.44834,R,ugm-3
13-01-2023,18:00,36.73938,R,ugm-3,47.86882,R,ugm-3,104.20176,R,ugm-3
13-01-2023,19:00,28.45257,R,ugm-3,60.46604,R,ugm-3,104.09271,R,ugm-3
13-01-2023,20:00,25.82071,R,ugm-3,54.25036,R,ugm-3,93.84157,R,ugm-3
13-01-2023,21:00,30.79991,R,ugm-3,51.90485,R,ugm-3,99.13072,R,ugm-3
13-01-2023,22:00,9.63831,R,ugm-3,24.20852,R,ugm-3,38.98705,R,ugm-3
13-01-2023,23:00,8.92700,R,ugm-3,24.69939,R,ugm-3,38.38725,R,ugm-3
13-01-2023,24:00,4.19675,R,ugm-3,12.32248,R,ugm-3,18.75741,R,ugm-3
14-01-2023,01:00,5.36557,R,ugm-3,14.09435,R,ugm-3,22.32145,R,ugm-3
14-01-2023,02:00,0.94966,R,ugm-3,5.59658,R,ugm-3,7.05271,R,ugm-3
14-01-2023,03:00,1.42449,R,ugm-3,4.08691,R,ugm-3,6.27109,R,ugm-3
14-01-2023,04:00,1.03275,R,ugm-3,2.61537,R,ugm-3,4.19890,R,ugm-3
14-01-2023,05:00,1.06837,R,ugm-3,2.28811,R,ugm-3,3.92625,R,ugm-3
14-01-2023,06:00,1.10398,R,ugm-3,2.28804,R,ugm-3,3.98078,R,ugm-3
14-01-2023,07:00,1.35326,R,ugm-3,4.03252,R,ugm-3,6.10750,R,ugm-3
14-01-2023,08:00,2.92020,R,ugm-3,7.13757,R,ugm-3,11.61515,R,ugm-3
14-01-2023,09:00,4.38030,R,ugm-3,10.24284,R,ugm-3,16.95921,R,ugm-3
14-01-2023,10:00,8.54693,R,ugm-3,19.50457,R,ugm-3,32.60967,R,ugm-3
14-01-2023,11:00,7.83468,R,ugm-3,19.23338,R,ugm-3,31.24639,R,ugm-3
14-01-2023,12:00,12.32182,R,ugm-3,26.64038,R,ugm-3,45.53357,R,ugm-3
14-01-2023,13:00,13.10529,R,ugm-3,20.58580,R,ugm-3,40.68029,R,ugm-3
14-01-2023,14:00,14.35171,R,ugm-3,23.52792,R,ugm-3,45.53357,R,ugm-3
14-01-2023,15:00,14.10243,R,ugm-3,25.32796,R,ugm-3,46.95138,R,ugm-3
14-01-2023,16:00,12.96284,R,ugm-3,22.44015,R,ugm-3,42.31623,R,ugm-3
14-01-2023,17:00,13.31896,R,ugm-3,20.58536,R,ugm-3,41.00748,R,ugm-3
14-01-2023,18:00,18.30467,R,ugm-3,31.91758,R,ugm-3,59.98434,R,ugm-3
14-01-2023,19:00,17.98416,R,ugm-3,29.68246,R,ugm-3,57.25778,R,ugm-3
14-01-2023,20:00,12.85600,R,ugm-3,32.03787,R,ugm-3,51.75013,R,ugm-3
14-01-2023,21:00,10.64805,R,ugm-3,25.98945,R,ugm-3,42.31623,R,ugm-3
14-01-2023,22:00,12.32182,R,ugm-3,26.58585,R,ugm-3,45.47904,R,ugm-3
14-01-2023,23:00,5.05693,R,ugm-3,20.27520,R,ugm-3,28.02905,R,ugm-3
14-01-2023,24:00,7.62101,R,ugm-3,24.52335,R,ugm-3,36.20873,R,ugm-3
15-01-2023,01:00,2.47233,R,ugm-3,12.35153,R,ugm-3,16.14239,R,ugm-3
15-01-2023,02:00,1.28371,R,ugm-3,5.44844,R,ugm-3,7.41677,R,ugm-3
15-01-2023,03:00,2.24650,R,ugm-3,6.64441,R,ugm-3,10.08899,R,ugm-3
15-01-2023,04:00,1.49766,R,ugm-3,4.41143,R,ugm-3,6.70782,R,ugm-3
15-01-2023,05:00,2.56743,R,ugm-3,7.51571,R,ugm-3,11.45237,R,ugm-3
15-01-2023,06:00,3.31626,R,ugm-3,12.69359,R,ugm-3,17.77844,R,ugm-3
15-01-2023,07:00,0.96279,R,ugm-3,4.19540,R,ugm-3,5.67165,R,ugm-3
15-01-2023,08:00,2.13952,R,ugm-3,9.20799,R,ugm-3,12.48854,R,ugm-3
15-01-2023,09:00,3.56587,R,ugm-3,13.78330,R,ugm-3,19.25089,R,ugm-3
15-01-2023,10:00,8.27281,R,ugm-3,18.45474,R,ugm-3,31.13954,R,ugm-3
15-01-2023,11:00,14.40610,R,ugm-3,31.84616,R,ugm-3,53.93521,R,ugm-3
15-01-2023,12:00,23.53473,R,ugm-3,36.22747,R,ugm-3,72.31354,R,ugm-3
15-01-2023,13:00,17.25880,R,ugm-3,26.81767,R,ugm-3,53.28079,R,ugm-3
15-01-2023,14:00,21.43086,R,ugm-3,34.27251,R,ugm-3,67.13271,R,ugm-3
15-01-2023,15:00,20.75335,R,ugm-3,33.12995,R,ugm-3,64.95130,R,ugm-3
15-01-2023,16:00,13.65727,R,ugm-3,26.39561,R,ugm-3,47.33647,R,ugm-3
15-01-2023,17:00,16.29601,R,ugm-3,38.76466,R,ugm-3,63.75153,R,ugm-3
15-01-2023,18:00,23.57038,R,ugm-3,46.04364,R,ugm-3,82.18439,R,ugm-3
15-01-2023,19:00,16.40299,R,ugm-3,37.83714,R,ugm-3,62.98804,R,ugm-3